Regional Weather Roundup
Issued by NWS

Home | Current Version | Previous Version | Text Only | Print | Product List | Glossary On
Versions: 1 2 3 4 5 6 7 8 9 10 11 12 13 14 15 16 17 18 19 20 21 22 23 24 25 26 27 28 29 30 31 32 33 34 35 36 37 38 39 40 41 42 43 44 45 46 47 48 49 50
000
ASUS45 KABQ 310201
RWRNM
NEW MEXICO REGIONAL WEATHER ROUNDUP
NATIONAL WEATHER SERVICE ALBUQUERQUE NM
800 PM MDT THU MAR 30 2017

NOTE: "FAIR" MEANS FEW OR NO CLOUDS BELOW 12,000 FEET AGL WITH NO
       SIGNIFICANT WEATHER OR OBSTRUCTIONS TO VISION.

      THIS PRODUCT IS RELEASED AS TWO VERSIONS.  ONE VERSION NEAR
      THE TOP OF THE HOUR CONTAINING PRELIMINARY DATA FROM ALBUQUERQUE
      AND OTHER STATIONS.  A FINAL VERSION WITH ADDITIONAL DATA IS
      ISSUED ABOUT 10 MINUTES AFTER THE HOUR.

NMZ501-503-504-510>518-310300-
NORTHWEST PLATEAU/NORTHCENTRAL MOUNTAINS

CITY           SKY/WX    TMP DP  RH WIND       PRES   REMARKS
FARMINGTON     FAIR      63  16  16 SW16      29.57F
LOS ALAMOS     FAIR      54  25  32 S6        29.77F
SANTA FE       FAIR      55  28  35 SE8       29.72F
TAOS             N/A     48  25  40 S8        29.77F
ANGEL FIRE     FAIR      39  29  68 SW3       29.84R

$$
NMZ402-403-502-505>509-310300-
WESTCENTRAL MOUNTAINS/SOUTHWEST MOUNTAINS

CITY           SKY/WX    TMP DP  RH WIND       PRES   REMARKS
GALLUP         FAIR      57  17  21 SW24G33   29.70F
GRANTS         FAIR      59  16  18 SW20G25   29.74F
SILVER CITY    FAIR      64  13  14 W13       29.81F

$$
NMZ407-409-411-412-310300-
SOUTHERN DESERTS

CITY           SKY/WX    TMP DP  RH WIND       PRES   REMARKS
DEMING         FAIR      72  10   9 SW14G22   29.75S
LAS CRUCES     FAIR      69  15  12 S7        29.78S
HOLLOMAN AFB   FAIR      71  20  15 S10       29.77F
ALAMOGORDO       N/A    N/A N/A N/A MISG        N/A
T OR C         FAIR      70  17  13 SW13      29.73S

$$
NMZ519>523-310300-
CENTRAL VALLEYS/CENTRAL HIGHLANDS

CITY           SKY/WX    TMP DP  RH WIND       PRES   REMARKS
ALBUQUERQUE    MOCLDY    67  24  19 S20       29.67F
DOUBLE EAGLE   MOCLDY    63  28  27 SE9       29.70F
MORIARTY ARPT  MOCLDY    59  29  31 S12       29.76F
CLINES CORNERS FAIR      52  26  36 S15       29.81S
BELEN          FAIR      67  19  16 SW12      29.69R
SOCORRO        FAIR      68  17  14 S13       29.71R

$$
NMZ524>526-539-540-310300-
SOUTHCENTRAL MOUNTAINS

CITY           SKY/WX    TMP DP  RH WIND       PRES   REMARKS
RUIDOSO        NOT AVBL

$$
NMZ527>531-310300-
NORTHEAST HIGHLANDS/NORTHEAST PLAINS

CITY           SKY/WX    TMP DP  RH WIND       PRES   REMARKS
LAS VEGAS      FAIR      48  20  32 S7        29.78S
RATON          FAIR      50  29  44 W7        29.71R
CLAYTON        FAIR      51  36  56 SE8       29.71S

$$
NMZ532>537-310300-
EASTCENTRAL PLAINS

CITY           SKY/WX    TMP DP  RH WIND       PRES   REMARKS
TUCUMCARI      FAIR      67  35  30 W6        29.64S
CANNON AFB     FAIR      62  35  36 SW10      29.71R
CLOVIS AIRPORT FAIR      55  39  54 S9        29.71S

$$
NMZ028-029-538-310300-
SOUTHEAST PLAINS

CITY           SKY/WX    TMP DP  RH WIND       PRES   REMARKS
ROSWELL        FAIR      68  25  19 W7          N/A
ARTESIA        FAIR      70  21  16 SW16      29.71S
CARLSBAD       FAIR      70  18  13 S8        29.71R


$$




USA.gov is the U.S. government's official web portal to all federal, state and local government web resources and services.